AXY303 NZCH-NZFX

Flight info

Callsign AXY303
Flight time N/A
Altitude 40000
Route PEHRR A338 HELGE/N0454F410 A338 FRITH/N0453F400 A338 NOBEY
Aircraft A343/H-SDE2E3FGHIJ4J5M1RWXY/LB1D1

Departure

Time 2026-05-06 05:41
Airport Christchurch International Airport (NZCH)

Arrival

Time N/A
Airport Phoenix Airfield (NZFX)
Time Latitude Longitude Altitude Speed Heading
2026-05-06 05:19 -43.48734 172.54529 108 ft 0 kts 270°
2026-05-06 05:34 -43.48734 172.54528 106 ft 0 kts 270°
2026-05-06 05:34 -43.48733 172.54505 108 ft 4 kts 278°
2026-05-06 05:35 -43.48720 172.54441 107 ft 10 kts 291°
2026-05-06 05:35 -43.48676 172.54348 108 ft 13 kts 307°
2026-05-06 05:35 -43.48613 172.54244 110 ft 16 kts 309°
2026-05-06 05:35 -43.48534 172.54115 109 ft 19 kts 312°
2026-05-06 05:36 -43.48531 172.53970 111 ft 14 kts 223°
2026-05-06 05:36 -43.48611 172.53879 110 ft 16 kts 219°
2026-05-06 05:36 -43.48703 172.53773 115 ft 18 kts 220°
2026-05-06 05:36 -43.48801 172.53661 116 ft 19 kts 219°
2026-05-06 05:37 -43.48910 172.53533 116 ft 22 kts 220°
2026-05-06 05:37 -43.49034 172.53392 112 ft 25 kts 220°
2026-05-06 05:37 -43.49168 172.53241 112 ft 25 kts 219°
2026-05-06 05:37 -43.49299 172.53087 114 ft 24 kts 220°
2026-05-06 05:38 -43.49426 172.52942 117 ft 24 kts 219°
2026-05-06 05:38 -43.49553 172.52798 126 ft 24 kts 219°
2026-05-06 05:38 -43.49685 172.52648 122 ft 21 kts 220°
2026-05-06 05:38 -43.49743 172.52582 123 ft 11 kts 219°
2026-05-06 05:39 -43.49793 172.52487 121 ft 14 kts 256°
2026-05-06 05:39 -43.49791 172.52345 119 ft 16 kts 271°
2026-05-06 05:39 -43.49761 172.52244 115 ft 6 kts 340°
2026-05-06 05:39 -43.49717 172.52255 116 ft 8 kts 37°
2026-05-06 05:40 -43.49664 172.52319 114 ft 21 kts 40°
2026-05-06 05:40 -43.49326 172.52708 115 ft 106 kts 40°
2026-05-06 05:40 -43.48563 172.53595 125 ft 177 kts 40°
2026-05-06 05:40 -43.47504 172.54807 536 ft 214 kts 40°
2026-05-06 05:41 -43.46247 172.56171 1288 ft 246 kts 27°
2026-05-06 05:41 -43.44626 172.57090 2270 ft 259 kts 18°
2026-05-06 05:41 -43.42787 172.57645 2745 ft 285 kts 357°
2026-05-06 05:41 -43.40821 172.56880 3136 ft 309 kts 327°
2026-05-06 05:42 -43.39254 172.54738 3532 ft 332 kts 301°
2026-05-06 05:42 -43.38329 172.51915 4998 ft 310 kts 290°
2026-05-06 05:42 -43.37597 172.49380 6927 ft 255 kts 290°
2026-05-06 05:42 -43.36984 172.47286 8565 ft 221 kts 290°
2026-05-06 05:43 -43.36447 172.45399 9918 ft 206 kts 286°
2026-05-06 05:43 -43.36175 172.43492 10541 ft 215 kts 271°
2026-05-06 05:43 -43.36416 172.41352 10864 ft 241 kts 253°
2026-05-06 05:43 -43.37138 172.39137 11155 ft 269 kts 237°
2026-05-06 05:44 -43.38611 172.37379 11461 ft 299 kts 207°
2026-05-06 05:44 -43.40722 172.36828 11782 ft 326 kts 178°
2026-05-06 05:44 -43.42955 172.37742 12237 ft 345 kts 153°
2026-05-06 05:44 -43.44965 172.39647 12882 ft 356 kts 140°
2026-05-06 05:45 -43.46836 172.41934 13590 ft 363 kts 139°
2026-05-06 05:45 -43.48800 172.44186 14186 ft 372 kts 144°
2026-05-06 05:45 -43.51036 172.46026 14818 ft 377 kts 157°
2026-05-06 05:45 -43.53518 172.47166 15503 ft 378 kts 171°
2026-05-06 05:46 -43.56138 172.47479 16185 ft 378 kts 186°
2026-05-06 05:46 -43.58771 172.47226 16903 ft 381 kts 189°
2026-05-06 05:46 -43.61430 172.46890 17608 ft 386 kts 189°
2026-05-06 05:46 -43.64118 172.46561 18303 ft 391 kts 189°
2026-05-06 05:47 -43.66848 172.46241 18927 ft 395 kts 189°
2026-05-06 05:47 -43.69603 172.45925 19542 ft 399 kts 189°
2026-05-06 05:47 -43.72386 172.45612 20164 ft 403 kts 189°
2026-05-06 05:47 -43.75187 172.45298 20777 ft 406 kts 188°
2026-05-06 05:48 -43.78018 172.44982 21391 ft 409 kts 188°
2026-05-06 05:48 -43.80866 172.44665 21986 ft 413 kts 188°
2026-05-06 05:48 -43.83739 172.44345 22566 ft 416 kts 188°
2026-05-06 05:48 -43.86643 172.44021 23130 ft 420 kts 188°
2026-05-06 05:49 -43.89565 172.43695 23689 ft 424 kts 188°
2026-05-06 05:49 -43.92518 172.43365 24160 ft 427 kts 188°
2026-05-06 05:49 -43.95482 172.43034 24649 ft 429 kts 188°
2026-05-06 05:49 -43.98462 172.42701 25165 ft 431 kts 188°
2026-05-06 05:50 -44.01463 172.42365 25585 ft 434 kts 189°
2026-05-06 05:50 -44.04479 172.42026 26043 ft 436 kts 189°
2026-05-06 05:50 -44.07515 172.41686 26527 ft 438 kts 189°
2026-05-06 05:50 -44.10554 172.41344 26998 ft 439 kts 189°
2026-05-06 05:51 -44.13610 172.41000 27466 ft 441 kts 190°
2026-05-06 05:51 -44.16674 172.40655 27915 ft 443 kts 190°
2026-05-06 05:51 -44.19748 172.40277 28285 ft 446 kts 192°
2026-05-06 05:51 -44.22844 172.39784 28625 ft 449 kts 193°
2026-05-06 05:52 -44.25943 172.39238 29033 ft 450 kts 193°
2026-05-06 05:52 -44.29059 172.38677 29446 ft 452 kts 193°
2026-05-06 05:52 -44.32183 172.38123 29844 ft 454 kts 193°
2026-05-06 05:52 -44.35330 172.37578 30215 ft 456 kts 193°
2026-05-06 05:53 -44.38488 172.37041 30515 ft 460 kts 193°
2026-05-06 05:53 -44.41679 172.36505 30775 ft 463 kts 193°
2026-05-06 05:53 -44.44876 172.35973 31119 ft 464 kts 193°
2026-05-06 05:53 -44.48084 172.35442 31473 ft 464 kts 193°
2026-05-06 05:54 -44.51290 172.34911 31811 ft 465 kts 194°
2026-05-06 05:54 -44.54504 172.34377 32135 ft 466 kts 194°
2026-05-06 05:54 -44.57721 172.33841 32457 ft 466 kts 194°
2026-05-06 05:54 -44.60895 172.33312 32907 ft 464 kts 194°
2026-05-06 05:55 -44.64086 172.32781 33383 ft 461 kts 194°
2026-05-06 05:55 -44.67263 172.32252 33847 ft 458 kts 195°
2026-05-06 05:55 -44.70413 172.31725 34279 ft 455 kts 195°
2026-05-06 05:55 -44.73555 172.31198 34612 ft 454 kts 195°
2026-05-06 05:56 -44.76692 172.30668 34849 ft 455 kts 195°
2026-05-06 05:56 -44.79847 172.30132 35057 ft 457 kts 194°
2026-05-06 05:56 -44.83003 172.29597 35300 ft 457 kts 194°
2026-05-06 05:56 -44.86169 172.29061 35542 ft 458 kts 194°
2026-05-06 05:57 -44.89332 172.28526 35775 ft 459 kts 194°
2026-05-06 05:57 -44.92507 172.27989 36006 ft 459 kts 193°
2026-05-06 05:57 -44.95680 172.27452 36250 ft 460 kts 193°
2026-05-06 05:57 -44.98867 172.26911 36467 ft 461 kts 193°
2026-05-06 05:58 -45.02052 172.26371 36700 ft 462 kts 193°
2026-05-06 05:58 -45.05240 172.25829 36931 ft 462 kts 192°
2026-05-06 05:58 -45.08438 172.25285 37155 ft 463 kts 192°
2026-05-06 05:58 -45.11639 172.24741 37390 ft 463 kts 192°
2026-05-06 05:59 -45.14835 172.24196 37653 ft 463 kts 192°
2026-05-06 05:59 -45.18033 172.23651 37906 ft 462 kts 191°
2026-05-06 05:59 -45.21224 172.23106 38132 ft 463 kts 191°
2026-05-06 05:59 -45.24419 172.22560 38341 ft 463 kts 191°
2026-05-06 06:00 -45.27622 172.22009 38553 ft 463 kts 191°
2026-05-06 06:00 -45.30819 172.21460 38765 ft 464 kts 191°
2026-05-06 06:00 -45.34023 172.20909 39020 ft 462 kts 191°
2026-05-06 06:00 -45.37201 172.20364 39278 ft 460 kts 191°
2026-05-06 06:01 -45.40379 172.19817 39449 ft 460 kts 191°
2026-05-06 06:01 -45.43551 172.19269 39592 ft 460 kts 191°
2026-05-06 06:01 -45.46733 172.18719 39738 ft 460 kts 191°
2026-05-06 06:01 -45.49908 172.18169 39895 ft 460 kts 191°
2026-05-06 06:02 -45.53087 172.17619 40072 ft 460 kts 192°
2026-05-06 06:02 -45.56273 172.17066 40176 ft 461 kts 192°
2026-05-06 06:02 -45.62632 172.15959 40355 ft 464 kts 192°
2026-05-06 06:03 -45.68013 172.15037 40302 ft 465 kts 192°
2026-05-06 06:03 -45.72238 172.14304 40200 ft 459 kts 192°
2026-05-06 06:03 -45.75402 172.13751 40183 ft 458 kts 192°
2026-05-06 06:04 -45.80698 172.12822 40176 ft 457 kts 192°
2026-05-06 06:04 -45.87013 172.11713 40173 ft 457 kts 192°
2026-05-06 06:05 -45.93327 172.10605 40175 ft 457 kts 192°
2026-05-06 06:05 -45.99638 172.09494 39880 ft 456 kts 192°
2026-05-06 06:06 -46.02745 172.08947 39643 ft 456 kts 192°
2026-05-06 06:06 -46.05930 172.08386 39411 ft 456 kts 192°
2026-05-06 06:06 -46.09037 172.07838 39221 ft 455 kts 192°
2026-05-06 06:06 -46.12173 172.07284 39177 ft 455 kts 192°
2026-05-06 06:07 -46.13236 172.07096 39170 ft 455 kts 192°
2026-05-06 06:07 -46.15714 172.06658 39161 ft 455 kts 192°
2026-05-06 06:08 -46.21989 172.05546 39158 ft 454 kts 192°
2026-05-06 06:08 -46.28261 172.04431 39159 ft 454 kts 192°
2026-05-06 06:09 -46.34531 172.03315 39157 ft 454 kts 193°
2026-05-06 06:09 -46.40791 172.02198 39154 ft 453 kts 193°
2026-05-06 06:10 -46.47048 172.01078 39154 ft 453 kts 193°
2026-05-06 06:10 -46.53306 171.99955 39151 ft 453 kts 193°
2026-05-06 06:11 -46.59562 171.98831 39151 ft 453 kts 193°
2026-05-06 06:11 -46.65817 171.97704 39151 ft 453 kts 193°
2026-05-06 06:12 -46.72069 171.96575 39151 ft 453 kts 193°
2026-05-06 06:12 -46.78328 171.95442 39146 ft 453 kts 193°
2026-05-06 06:13 -46.84585 171.94307 39143 ft 453 kts 193°
2026-05-06 06:13 -46.90834 171.93171 39161 ft 453 kts 193°
2026-05-06 06:14 -46.97109 171.92026 39138 ft 455 kts 193°
2026-05-06 06:14 -47.03395 171.90876 39140 ft 455 kts 193°
2026-05-06 06:15 -47.09678 171.89726 39147 ft 455 kts 193°
2026-05-06 06:15 -47.15978 171.88570 39138 ft 456 kts 194°
2026-05-06 06:16 -47.22284 171.87409 39134 ft 457 kts 194°
2026-05-06 06:16 -47.28549 171.86254 39128 ft 457 kts 194°
2026-05-06 06:17 -47.34859 171.85088 39131 ft 457 kts 194°
2026-05-06 06:17 -47.41170 171.83918 39130 ft 457 kts 194°
2026-05-06 06:18 -47.47477 171.82746 39127 ft 457 kts 194°
2026-05-06 06:18 -47.53792 171.81569 39134 ft 457 kts 194°
2026-05-06 06:19 -47.60104 171.80391 39124 ft 458 kts 194°
2026-05-06 06:19 -47.66424 171.79208 39124 ft 458 kts 194°
2026-05-06 06:20 -47.72740 171.78023 39131 ft 458 kts 194°
2026-05-06 06:20 -47.79070 171.76832 39113 ft 459 kts 194°
2026-05-06 06:21 -47.85407 171.75637 39113 ft 459 kts 194°
2026-05-06 06:21 -47.91747 171.74439 39113 ft 459 kts 194°
2026-05-06 06:22 -47.98090 171.73237 39115 ft 460 kts 194°
2026-05-06 06:22 -48.04447 171.72029 39108 ft 461 kts 194°
2026-05-06 06:23 -48.10804 171.70819 39105 ft 461 kts 194°
2026-05-06 06:23 -48.17166 171.69605 39110 ft 461 kts 194°
2026-05-06 06:24 -48.23527 171.68388 39100 ft 461 kts 194°
2026-05-06 06:24 -48.29887 171.67168 39098 ft 461 kts 194°
2026-05-06 06:25 -48.36204 171.65953 39112 ft 461 kts 194°
2026-05-06 06:26 -48.45729 171.64115 39090 ft 460 kts 194°
2026-05-06 06:26 -48.52074 171.62887 39079 ft 460 kts 194°
2026-05-06 06:27 -48.58426 171.61655 39091 ft 460 kts 194°
2026-05-06 06:27 -48.64771 171.60420 39080 ft 460 kts 194°
2026-05-06 06:28 -48.71108 171.59185 39089 ft 460 kts 194°
2026-05-06 06:28 -48.77452 171.57944 39097 ft 460 kts 194°
2026-05-06 06:29 -48.83793 171.56702 39077 ft 459 kts 194°
2026-05-06 06:29 -48.90124 171.55458 39072 ft 459 kts 194°
2026-05-06 06:30 -48.96453 171.54211 39065 ft 459 kts 194°
2026-05-06 06:30 -49.02783 171.52960 39075 ft 459 kts 194°
2026-05-06 06:31 -49.09120 171.51704 39063 ft 459 kts 194°
2026-05-06 06:31 -49.15460 171.50446 39057 ft 459 kts 194°
2026-05-06 06:32 -49.21800 171.49184 39081 ft 459 kts 194°
2026-05-06 06:32 -49.28102 171.47926 39059 ft 460 kts 194°
2026-05-06 06:33 -49.34457 171.46653 39048 ft 461 kts 194°
2026-05-06 06:33 -49.40816 171.45378 39045 ft 461 kts 194°
2026-05-06 06:34 -49.47177 171.44099 39052 ft 461 kts 195°
2026-05-06 06:34 -49.53544 171.42816 39044 ft 462 kts 194°
2026-05-06 06:35 -49.59914 171.41536 39044 ft 462 kts 194°
2026-05-06 06:35 -49.66283 171.40248 39054 ft 462 kts 195°
2026-05-06 06:36 -49.72650 171.38952 39039 ft 461 kts 195°
2026-05-06 06:36 -49.79005 171.37655 39034 ft 461 kts 195°
2026-05-06 06:37 -49.85367 171.36354 39034 ft 461 kts 195°
2026-05-06 06:37 -49.91729 171.35051 39028 ft 461 kts 195°
2026-05-06 06:38 -49.98086 171.33746 39026 ft 460 kts 195°
2026-05-06 06:38 -50.04472 171.32671 39021 ft 464 kts 190°
2026-05-06 06:39 -50.10950 171.32300 39038 ft 467 kts 188°
2026-05-06 06:39 -50.17431 171.31990 39018 ft 465 kts 189°
2026-05-06 06:40 -50.23893 171.31570 39012 ft 464 kts 190°
2026-05-06 06:40 -50.30346 171.31088 39009 ft 464 kts 190°
2026-05-06 06:41 -50.36798 171.30593 39013 ft 464 kts 190°
2026-05-06 06:41 -50.43229 171.30103 39010 ft 462 kts 190°
2026-05-06 06:42 -50.49655 171.29614 39001 ft 462 kts 190°
2026-05-06 06:42 -50.56076 171.29124 39030 ft 462 kts 190°
2026-05-06 06:43 -50.62455 171.28638 38997 ft 461 kts 190°
2026-05-06 06:43 -50.68856 171.28149 38997 ft 460 kts 190°
2026-05-06 06:44 -50.75249 171.27658 38989 ft 460 kts 190°
2026-05-06 06:44 -50.81647 171.27164 38987 ft 460 kts 190°
2026-05-06 06:45 -50.88047 171.26670 38986 ft 460 kts 190°
2026-05-06 06:45 -50.94443 171.26175 38982 ft 460 kts 190°
2026-05-06 06:46 -51.00837 171.25679 38997 ft 460 kts 190°
2026-05-06 06:46 -51.07228 171.25183 38977 ft 459 kts 190°
2026-05-06 06:47 -51.13608 171.24685 38976 ft 459 kts 190°
2026-05-06 06:47 -51.19991 171.24185 38968 ft 459 kts 190°
2026-05-06 06:48 -51.26375 171.23684 38989 ft 460 kts 191°
2026-05-06 06:48 -51.32752 171.23184 38966 ft 458 kts 191°
2026-05-06 06:49 -51.39114 171.22682 38962 ft 458 kts 191°
2026-05-06 06:49 -51.45439 171.22181 38959 ft 458 kts 191°
2026-05-06 06:50 -51.51843 171.21672 38956 ft 458 kts 191°
2026-05-06 06:50 -51.58205 171.21166 38950 ft 458 kts 191°
2026-05-06 06:51 -51.64522 171.20662 38947 ft 457 kts 191°
2026-05-06 06:51 -51.70884 171.20153 38943 ft 457 kts 191°
2026-05-06 06:52 -51.77244 171.19643 38937 ft 457 kts 191°
2026-05-06 06:52 -51.82571 171.19215 38938 ft 457 kts 191°
2026-05-06 06:53 -51.88920 171.18703 38929 ft 457 kts 191°
2026-05-06 06:53 -51.95278 171.18188 38929 ft 457 kts 191°
2026-05-06 06:54 -52.01636 171.17672 38928 ft 458 kts 191°
2026-05-06 06:54 -52.07997 171.17155 38922 ft 458 kts 191°
2026-05-06 06:55 -52.14362 171.16636 38922 ft 458 kts 191°
2026-05-06 06:55 -52.20723 171.16116 38943 ft 458 kts 192°
2026-05-06 06:56 -52.27085 171.15594 38908 ft 458 kts 192°
2026-05-06 06:56 -52.33446 171.15070 38908 ft 458 kts 192°
2026-05-06 06:57 -52.39771 171.14549 38903 ft 458 kts 192°
2026-05-06 06:57 -52.46131 171.14023 38906 ft 458 kts 192°
2026-05-06 06:58 -52.52490 171.13495 38898 ft 458 kts 192°
2026-05-06 06:58 -52.58863 171.12965 38891 ft 458 kts 192°
2026-05-06 06:59 -52.65228 171.12434 38884 ft 458 kts 192°
2026-05-06 06:59 -52.71591 171.11902 38893 ft 458 kts 192°
2026-05-06 07:00 -52.77957 171.11370 38877 ft 458 kts 192°
2026-05-06 07:00 -52.84323 171.10838 38882 ft 458 kts 192°
2026-05-06 07:01 -52.90689 171.10300 38881 ft 458 kts 192°
2026-05-06 07:01 -52.97060 171.09760 38870 ft 458 kts 192°
2026-05-06 07:02 -53.03427 171.09219 38862 ft 458 kts 192°
2026-05-06 07:02 -53.09791 171.08674 38866 ft 458 kts 192°
2026-05-06 07:03 -53.16161 171.08129 38854 ft 458 kts 192°
2026-05-06 07:03 -53.22521 171.07584 38854 ft 458 kts 192°
2026-05-06 07:04 -53.28890 171.07037 38854 ft 458 kts 192°
2026-05-06 07:04 -53.35256 171.06488 38852 ft 458 kts 192°
2026-05-06 07:05 -53.41617 171.05938 38873 ft 458 kts 192°
2026-05-06 07:05 -53.47990 171.05385 38840 ft 458 kts 192°
2026-05-06 07:06 -53.54361 171.04830 38841 ft 459 kts 192°
2026-05-06 07:06 -53.60736 171.04275 38837 ft 459 kts 192°
2026-05-06 07:07 -53.67109 171.03718 38870 ft 459 kts 193°
2026-05-06 07:07 -53.73487 171.03157 38829 ft 459 kts 193°
2026-05-06 07:08 -53.79873 171.02594 38829 ft 460 kts 193°
2026-05-06 07:08 -53.86217 171.02034 38821 ft 460 kts 193°
2026-05-06 07:09 -53.92603 171.01469 38834 ft 460 kts 193°
2026-05-06 07:09 -53.98991 171.00902 38812 ft 460 kts 193°
2026-05-06 07:10 -54.05386 171.00330 38807 ft 460 kts 193°
2026-05-06 07:10 -54.11786 170.99757 38797 ft 460 kts 193°
2026-05-06 07:11 -54.18177 170.99185 38815 ft 460 kts 193°
2026-05-06 07:11 -54.24569 170.98610 38790 ft 460 kts 193°
2026-05-06 07:12 -54.30964 170.98032 38796 ft 460 kts 193°
2026-05-06 07:12 -54.37335 170.97456 38779 ft 460 kts 193°
2026-05-06 07:13 -54.43735 170.96875 38793 ft 460 kts 193°
2026-05-06 07:13 -54.50134 170.96292 38776 ft 461 kts 193°
2026-05-06 07:14 -54.56538 170.95707 38769 ft 461 kts 193°
2026-05-06 07:14 -54.62941 170.95120 38765 ft 461 kts 193°
2026-05-06 07:15 -54.69339 170.94531 38784 ft 461 kts 193°
2026-05-06 07:15 -54.75757 170.93937 38754 ft 462 kts 193°
2026-05-06 07:16 -54.82142 170.93347 38757 ft 463 kts 193°
2026-05-06 07:16 -54.88613 170.92748 38748 ft 463 kts 193°
2026-05-06 07:17 -54.95041 170.92150 38748 ft 463 kts 193°
2026-05-06 07:17 -55.01478 170.91548 38742 ft 464 kts 193°
2026-05-06 07:18 -55.07877 170.90907 38731 ft 463 kts 194°
2026-05-06 07:18 -55.14357 170.90229 38720 ft 463 kts 194°
2026-05-06 07:19 -55.20750 170.89564 38748 ft 464 kts 194°
2026-05-06 07:19 -55.27252 170.88889 38719 ft 466 kts 194°
2026-05-06 07:20 -55.33681 170.88224 38715 ft 466 kts 194°
2026-05-06 07:20 -55.40152 170.87556 38707 ft 466 kts 194°
2026-05-06 07:21 -55.46626 170.86883 38725 ft 466 kts 194°
2026-05-06 07:21 -55.53156 170.86200 38708 ft 467 kts 194°
2026-05-06 07:22 -55.59605 170.85524 38697 ft 468 kts 194°
2026-05-06 07:22 -55.66100 170.84842 38688 ft 467 kts 194°
2026-05-06 07:23 -55.72593 170.84159 38689 ft 467 kts 194°
2026-05-06 07:23 -55.79080 170.83473 38686 ft 467 kts 194°
2026-05-06 07:24 -55.85568 170.82785 38679 ft 467 kts 194°
2026-05-06 07:24 -55.92056 170.82094 38681 ft 467 kts 194°
2026-05-06 07:25 -55.98545 170.81400 38693 ft 467 kts 194°
2026-05-06 07:25 -56.05050 170.80699 38671 ft 469 kts 194°
2026-05-06 07:26 -56.11571 170.79997 38662 ft 470 kts 194°
2026-05-06 07:26 -56.18092 170.79295 38658 ft 469 kts 194°
2026-05-06 07:27 -56.24610 170.78591 38685 ft 469 kts 193°
2026-05-06 07:27 -56.31135 170.77880 38653 ft 470 kts 193°
2026-05-06 07:28 -56.37677 170.77165 38662 ft 471 kts 193°
2026-05-06 07:28 -56.47473 170.76095 38645 ft 470 kts 193°
2026-05-06 07:29 -56.54001 170.75377 38650 ft 470 kts 193°
2026-05-06 07:29 -56.60493 170.74659 38645 ft 471 kts 193°
2026-05-06 07:30 -56.67082 170.73929 38639 ft 471 kts 193°
2026-05-06 07:30 -56.73288 170.73240 38630 ft 471 kts 193°
2026-05-06 07:33 -56.78945 170.72610 38643 ft 471 kts 193°
2026-05-06 07:33 -56.85496 170.71876 38622 ft 472 kts 193°
2026-05-06 07:34 -56.92054 170.71139 38622 ft 472 kts 193°
2026-05-06 07:34 -56.98612 170.70401 38614 ft 472 kts 193°
2026-05-06 07:35 -57.05174 170.69660 38644 ft 473 kts 193°
2026-05-06 07:35 -57.11754 170.68910 38602 ft 475 kts 193°
2026-05-06 07:36 -57.18355 170.68158 38601 ft 475 kts 193°
2026-05-06 07:36 -57.24960 170.67406 38603 ft 475 kts 193°
2026-05-06 07:37 -57.31564 170.66650 38625 ft 476 kts 193°
2026-05-06 07:37 -57.38175 170.65889 38596 ft 476 kts 193°
2026-05-06 07:38 -57.44792 170.65124 38592 ft 477 kts 193°
2026-05-06 07:38 -57.51412 170.64357 38586 ft 477 kts 193°
2026-05-06 07:39 -57.56907 170.63719 38591 ft 477 kts 193°
2026-05-06 07:39 -57.64611 170.62819 38580 ft 477 kts 193°
2026-05-06 07:40 -57.71239 170.62042 38573 ft 477 kts 193°
2026-05-06 07:40 -57.77870 170.61262 38573 ft 477 kts 193°
2026-05-06 07:41 -57.83421 170.60607 38564 ft 477 kts 193°
2026-05-06 07:41 -57.90052 170.59822 38567 ft 477 kts 193°
2026-05-06 07:42 -57.96639 170.59039 38556 ft 478 kts 193°
2026-05-06 07:42 -58.03270 170.58248 38547 ft 478 kts 193°
2026-05-06 07:43 -58.09905 170.57453 38545 ft 478 kts 193°
2026-05-06 07:43 -58.16545 170.56655 38549 ft 478 kts 193°
2026-05-06 07:44 -58.23171 170.55856 38536 ft 478 kts 193°
2026-05-06 07:44 -58.29807 170.55053 38528 ft 477 kts 193°
2026-05-06 07:45 -58.36439 170.54246 38523 ft 478 kts 193°
2026-05-06 07:45 -58.43073 170.53437 38523 ft 478 kts 193°
2026-05-06 07:46 -58.49703 170.52625 38514 ft 478 kts 193°
2026-05-06 07:46 -58.56336 170.51810 38514 ft 478 kts 193°
2026-05-06 07:47 -58.62969 170.50991 38515 ft 478 kts 193°
2026-05-06 07:47 -58.69602 170.50169 38534 ft 478 kts 193°
2026-05-06 07:48 -58.76228 170.49347 38498 ft 476 kts 193°
2026-05-06 07:48 -58.82742 170.48535 38491 ft 476 kts 193°
2026-05-06 07:49 -58.89346 170.47707 38497 ft 475 kts 193°
2026-05-06 07:49 -58.95927 170.46881 38487 ft 474 kts 193°
2026-05-06 07:50 -59.02507 170.46048 38479 ft 474 kts 193°
2026-05-06 07:50 -59.09081 170.45215 38476 ft 473 kts 193°
2026-05-06 07:51 -59.15653 170.44378 38475 ft 473 kts 193°
2026-05-06 07:51 -59.22228 170.43538 38472 ft 473 kts 193°
2026-05-06 07:52 -59.28804 170.42694 38476 ft 474 kts 193°
2026-05-06 07:52 -59.35393 170.41844 38453 ft 475 kts 193°
2026-05-06 07:53 -59.41990 170.40992 38447 ft 475 kts 193°
2026-05-06 07:53 -59.48585 170.40138 38448 ft 475 kts 193°
2026-05-06 07:54 -59.55195 170.39274 38470 ft 480 kts 192°
2026-05-06 07:54 -59.61944 170.38372 38437 ft 491 kts 192°
2026-05-06 07:55 -59.68841 170.37459 38434 ft 502 kts 192°
2026-05-06 07:55 -59.75879 170.36533 38423 ft 510 kts 192°
2026-05-06 07:56 -59.82960 170.35614 38464 ft 509 kts 192°
2026-05-06 07:56 -59.90023 170.34689 38420 ft 508 kts 192°
2026-05-06 07:57 -59.97082 170.33748 38419 ft 509 kts 192°
2026-05-06 07:57 -60.04147 170.32801 38414 ft 509 kts 192°
2026-05-06 07:58 -60.11211 170.31838 38444 ft 509 kts 192°
2026-05-06 07:58 -60.18223 170.30877 38394 ft 508 kts 192°
2026-05-06 07:59 -60.25268 170.29910 38396 ft 507 kts 192°
2026-05-06 07:59 -60.32312 170.28939 38384 ft 507 kts 192°
2026-05-06 08:00 -60.39350 170.27964 38389 ft 507 kts 192°
2026-05-06 08:00 -60.46400 170.26984 38379 ft 507 kts 191°
2026-05-06 08:01 -60.53446 170.26002 38369 ft 507 kts 191°
2026-05-06 08:01 -60.60489 170.25015 38370 ft 507 kts 191°
2026-05-06 08:02 -60.67532 170.24023 38356 ft 507 kts 191°
2026-05-06 08:02 -60.74587 170.23025 38341 ft 508 kts 191°
2026-05-06 08:03 -60.81630 170.22025 38345 ft 508 kts 191°
2026-05-06 08:03 -60.88682 170.21019 38337 ft 508 kts 191°
2026-05-06 08:04 -60.95733 170.20007 38337 ft 508 kts 191°
2026-05-06 08:04 -61.02787 170.18990 38328 ft 508 kts 191°
2026-05-06 08:05 -61.09795 170.17977 38312 ft 508 kts 191°
2026-05-06 08:05 -61.16852 170.16954 38312 ft 508 kts 191°
2026-05-06 08:06 -61.23909 170.15926 38300 ft 508 kts 191°
2026-05-06 08:06 -61.30967 170.14892 38301 ft 508 kts 191°
2026-05-06 08:07 -61.38024 170.13853 38287 ft 508 kts 191°
2026-05-06 08:07 -61.45080 170.12810 38284 ft 508 kts 191°
2026-05-06 08:08 -61.52132 170.11765 38293 ft 507 kts 191°
2026-05-06 08:08 -61.59170 170.10714 38291 ft 507 kts 191°
2026-05-06 08:09 -61.66209 170.09657 38278 ft 507 kts 191°
2026-05-06 08:09 -61.73248 170.08597 38264 ft 507 kts 191°
2026-05-06 08:10 -61.80286 170.07532 38264 ft 507 kts 191°
2026-05-06 08:10 -61.87324 170.06463 38297 ft 507 kts 191°
2026-05-06 08:11 -61.94358 170.05390 38247 ft 507 kts 191°
2026-05-06 08:11 -62.01403 170.04309 38246 ft 508 kts 191°
2026-05-06 08:12 -62.08449 170.03224 38229 ft 508 kts 191°
2026-05-06 08:12 -62.15495 170.02134 38234 ft 508 kts 191°
2026-05-06 08:13 -62.22501 170.01044 38221 ft 508 kts 191°
2026-05-06 08:13 -62.29561 169.99940 38209 ft 509 kts 191°
2026-05-06 08:14 -62.36623 169.98831 38208 ft 509 kts 191°
2026-05-06 08:14 -62.43680 169.97719 38198 ft 509 kts 191°
2026-05-06 08:15 -62.50742 169.96599 38206 ft 509 kts 190°
2026-05-06 08:15 -62.57814 169.95472 38180 ft 510 kts 190°
2026-05-06 08:16 -62.64892 169.94340 38174 ft 510 kts 190°
2026-05-06 08:16 -62.71973 169.93202 38172 ft 510 kts 190°
2026-05-06 08:17 -62.79054 169.92059 38172 ft 510 kts 190°
2026-05-06 08:17 -62.86137 169.90909 38158 ft 510 kts 190°
2026-05-06 08:18 -62.93222 169.89753 38147 ft 511 kts 190°
2026-05-06 08:18 -63.00308 169.88592 38147 ft 511 kts 190°
2026-05-06 08:19 -63.07391 169.87426 38173 ft 511 kts 190°
2026-05-06 08:19 -63.14478 169.86253 38122 ft 511 kts 190°
2026-05-06 08:20 -63.21567 169.85074 38119 ft 511 kts 190°
2026-05-06 08:20 -63.28655 169.83890 38107 ft 511 kts 190°
2026-05-06 08:21 -63.35743 169.82699 38107 ft 511 kts 190°
2026-05-06 08:21 -63.42831 169.81503 38094 ft 511 kts 190°
2026-05-06 08:22 -63.49917 169.80301 38093 ft 511 kts 190°
2026-05-06 08:22 -63.57001 169.79094 38081 ft 510 kts 190°
2026-05-06 08:23 -63.64085 169.77881 38061 ft 511 kts 190°
2026-05-06 08:23 -63.71124 169.76669 38083 ft 511 kts 190°
2026-05-06 08:24 -63.78206 169.75444 38051 ft 510 kts 190°
2026-05-06 08:24 -63.85285 169.74213 38052 ft 510 kts 190°
2026-05-06 08:25 -63.92364 169.72975 38037 ft 510 kts 190°
2026-05-06 08:25 -63.99443 169.71732 38037 ft 510 kts 190°
2026-05-06 08:26 -64.06521 169.70482 38025 ft 510 kts 190°
2026-05-06 08:26 -64.13592 169.69227 38007 ft 510 kts 190°
2026-05-06 08:27 -64.20665 169.67966 38006 ft 510 kts 190°
2026-05-06 08:27 -64.27735 169.66698 37993 ft 509 kts 190°
2026-05-06 08:28 -64.34797 169.65424 37994 ft 509 kts 190°
2026-05-06 08:28 -64.41860 169.64145 37976 ft 509 kts 190°
2026-05-06 08:29 -64.48924 169.62858 37978 ft 509 kts 190°
2026-05-06 08:29 -64.54837 169.61777 37979 ft 509 kts 190°
2026-05-06 08:30 -64.61851 169.60487 37995 ft 509 kts 190°
2026-05-06 08:30 -64.68914 169.59182 37961 ft 509 kts 190°
2026-05-06 08:31 -64.75976 169.57870 37951 ft 509 kts 190°
2026-05-06 08:31 -64.83032 169.56553 37950 ft 509 kts 190°
2026-05-06 08:32 -64.90103 169.55225 37936 ft 509 kts 190°
2026-05-06 08:32 -64.97165 169.53893 37948 ft 509 kts 189°
2026-05-06 08:33 -65.04222 169.52551 37925 ft 509 kts 190°
2026-05-06 08:33 -65.11269 169.51169 37925 ft 509 kts 190°
2026-05-06 08:34 -65.21853 169.49074 37908 ft 509 kts 190°
2026-05-06 08:35 -65.28910 169.47674 37903 ft 509 kts 189°
2026-05-06 08:35 -65.35959 169.46272 37895 ft 508 kts 189°
2026-05-06 08:36 -65.43004 169.44861 37883 ft 508 kts 189°
2026-05-06 08:36 -65.50054 169.43442 37875 ft 508 kts 189°
2026-05-06 08:37 -65.57099 169.42016 37900 ft 508 kts 189°
2026-05-06 08:37 -65.64143 169.40583 37860 ft 508 kts 189°
2026-05-06 08:38 -65.71138 169.39152 37860 ft 508 kts 189°
2026-05-06 08:38 -65.78222 169.37694 37846 ft 508 kts 189°
2026-05-06 08:39 -65.85265 169.36238 37848 ft 508 kts 189°
2026-05-06 08:39 -65.92261 169.34783 37843 ft 508 kts 189°
2026-05-06 08:40 -65.99300 169.33312 37839 ft 508 kts 189°
2026-05-06 08:40 -66.06339 169.31831 37829 ft 508 kts 189°
2026-05-06 08:41 -66.13378 169.30342 37824 ft 508 kts 189°
2026-05-06 08:41 -66.20413 169.28846 37853 ft 508 kts 189°
2026-05-06 08:42 -66.27451 169.27341 37798 ft 507 kts 189°
2026-05-06 08:42 -66.34486 169.25828 37795 ft 507 kts 189°
2026-05-06 08:43 -66.41521 169.24307 37789 ft 507 kts 189°
2026-05-06 08:43 -66.48557 169.22777 37786 ft 508 kts 189°
2026-05-06 08:44 -66.55595 169.21237 37792 ft 508 kts 189°
2026-05-06 08:44 -66.62627 169.19691 37785 ft 507 kts 189°
2026-05-06 08:45 -66.69655 169.18137 37781 ft 507 kts 189°
2026-05-06 08:45 -66.76682 169.16573 37778 ft 507 kts 189°
2026-05-06 08:46 -66.83708 169.15001 37773 ft 507 kts 189°
2026-05-06 08:46 -66.90725 169.13422 37773 ft 505 kts 189°
2026-05-06 08:47 -66.97721 169.11840 37761 ft 504 kts 189°
2026-05-06 08:47 -67.04662 169.10259 37752 ft 504 kts 189°
2026-05-06 08:48 -67.11650 169.08659 37758 ft 504 kts 189°
2026-05-06 08:48 -67.18630 169.07052 37782 ft 503 kts 189°
2026-05-06 08:49 -67.25601 169.05436 37764 ft 503 kts 189°
2026-05-06 08:49 -67.32572 169.03810 37768 ft 503 kts 189°
2026-05-06 08:50 -67.39543 169.02176 37772 ft 503 kts 189°
2026-05-06 08:50 -67.46514 169.00533 37782 ft 503 kts 189°
2026-05-06 08:51 -67.53485 168.98880 37779 ft 503 kts 189°
2026-05-06 08:51 -67.60456 168.97217 37791 ft 503 kts 189°
2026-05-06 08:52 -67.67427 168.95544 37790 ft 503 kts 189°
2026-05-06 08:52 -67.74397 168.93862 37791 ft 503 kts 189°
2026-05-06 08:53 -67.81366 168.92169 37796 ft 503 kts 189°
2026-05-06 08:53 -67.88344 168.90463 37807 ft 505 kts 189°
2026-05-06 08:54 -67.95348 168.88740 37804 ft 506 kts 189°
2026-05-06 08:54 -68.02357 168.87008 37816 ft 506 kts 189°
2026-05-06 08:55 -68.09357 168.85268 37834 ft 506 kts 189°
2026-05-06 08:55 -68.16325 168.83524 37862 ft 506 kts 189°
2026-05-06 08:56 -68.23333 168.81759 37849 ft 506 kts 189°
2026-05-06 08:56 -68.30334 168.79985 37857 ft 506 kts 189°
2026-05-06 08:57 -68.37351 168.78196 37877 ft 506 kts 189°
2026-05-06 08:57 -68.44353 168.76399 37877 ft 506 kts 189°
2026-05-06 08:58 -68.51364 168.74590 37900 ft 506 kts 189°
2026-05-06 08:58 -68.58353 168.72777 37894 ft 503 kts 189°
2026-05-06 08:59 -68.65317 168.70957 37913 ft 503 kts 190°
2026-05-06 08:59 -68.72275 168.69125 37910 ft 503 kts 189°
2026-05-06 09:00 -68.79240 168.67280 37931 ft 503 kts 190°
2026-05-06 09:00 -68.86207 168.65424 37936 ft 502 kts 189°
2026-05-06 09:01 -68.93143 168.63568 37950 ft 500 kts 189°
2026-05-06 09:01 -69.00062 168.61702 37952 ft 500 kts 189°
2026-05-06 09:02 -69.06985 168.59822 37968 ft 500 kts 189°
2026-05-06 09:02 -69.13908 168.57929 37969 ft 500 kts 189°
2026-05-06 09:03 -69.20825 168.56028 37987 ft 499 kts 189°
2026-05-06 09:03 -69.27740 168.54115 37990 ft 499 kts 189°
2026-05-06 09:04 -69.34653 168.52190 38010 ft 499 kts 189°
2026-05-06 09:04 -69.41567 168.50252 38006 ft 499 kts 189°
2026-05-06 09:05 -69.48483 168.48301 38065 ft 499 kts 189°
2026-05-06 09:05 -69.55401 168.46336 38058 ft 500 kts 189°